Back to catalog

ONEWEB-0390

AliveCommunicationsPO
NORAD 50470·PAYLOAD·🇬🇧 United Kingdom

Launched Dec 27, 2021 from Baikonur Cosmodrome

Loading…

Next Passes (next 24 hours)

TLE

FreshSource: CelesTrak SupGP

Epoch: Sep 14, 2026, 23:31 UTC

1 50470C 21132B   26257.98002732 -.00000393  00000+0 -10137-2 0  2575
2 50470  87.9197 348.0375 0001648 105.3210   4.2030 13.17647572    13

Track ONEWEB-0390 in real time with AllMySat

Download on the App Store